Location: Caltech
(34.1382°N, 118.1253°W)
Time: 15:22:47
(UTC-08:00)

ERBS - Visible Passes

Search period start: 17 January 2017 00:00
Search period end: 27 January 2017 00:00
Orbit: 429 x 447 km, 57.0° (Epoch: 16 January)

Date Brightness Start Highest point End Pass type
(mag) Time Alt. Az. Time Alt. Az. Time Alt. Az.
17 Jan 2.6 06:31:54 10° NW 06:35:20 68° NE 06:38:42 10° SE visible
18 Jan 3.5 05:51:26 12° NNW 05:54:20 38° NE 05:57:33 10° ESE visible
19 Jan 4.3 05:12:18 20° NNE 05:13:19 23° NE 05:16:07 10° E visible
20 Jan 5.3 04:33:14 14° ENE 04:33:14 14° ENE 04:34:21 10° ENE visible
20 Jan 3.0 06:06:38 15° WNW 06:09:05 38° SW 06:12:16 10° SSE visible
21 Jan 2.2 05:27:40 58° WNW 05:28:11 73° SW 05:31:35 10° SSE visible
22 Jan 4.2 04:48:47 28° ESE 04:48:47 28° ESE 04:50:36 10° SE visible
23 Jan 4.5 05:43:25 13° SW 05:43:25 13° SW 05:44:32 10° SSW visible
24 Jan 4.4 18:31:17 10° SSE 18:32:37 15° SE 18:32:37 15° SE visible
25 Jan 4.5 19:25:34 10° SW 19:27:19 26° WSW 19:27:19 26° WSW visible
26 Jan 2.2 18:44:32 10° SW 18:48:01 82° SE 18:48:32 62° NE visible
